Weather History for OSDI - May, 2013

Change the Weather History Date:

Saturday, May 18, 2013

  Actual Average Record
Temperature  
Mean Temperature 77 °F -  
Max Temperature 95 °F 90 °F 95 °F (1998)
Min Temperature 59 °F 54 °F 46 °F (2001)
Cooling Degree Days 12    
Growing Degree Days 27 (Base 50)    
Moisture  
Dew Point 48 °F    
Average Humidity 43    
Maximum Humidity 94    
Minimum Humidity 10    
Precipitation  
Precipitation 0.00 in 0.00 in - ()
Sea Level Pressure  
Sea Level Pressure 30.01 in    
Wind  
Wind Speed 2 mph ()    
Max Wind Speed 9 mph    
Max Gust Speed -    
Visibility 8.1 miles    
Events      
Averages and records for this station are not official NWS values.
T = Trace of Precipitation, MM = Missing Value Source: Averaged Metar Reports

Daily Weather History Graph

Daily Weather History Graph

Search for Another Location

Airport or City:

Trip Planner

Search our weather history database for the weather conditions in past years. The results will help you decide how hot, cold, wet, or windy it might be!

Date:

Astronomy

May. 18, 2013 Rise Set
Actual Time 5:31 AM EEST 7:29 PM EEST
Civil Twilight 5:04 AM EEST 7:57 PM EEST
Nautical Twilight 4:30 AM EEST 8:30 PM EEST
Astronomical Twilight 3:55 AM EEST 9:06 PM EEST
Moon 12:32 PM EEST (5/18) 12:51 AM EEST (5/18)
Length of Visible Light 14h 52m
Length of Day
13h 57m
First Quarter, 52% of the Moon is Illuminated
May 18
First Quarter
May 25
Full
May 31
Last Quarter
Jun 8
New
Jun 16
First Quarter

Hourly Weather History & Observations

Time (EEST) Temp. Dew Point Humidity Pressure Visibility Wind Dir Wind Speed Gust Speed Precip Events Conditions
12:00 AM 66.2 °F 50.0 °F 56% 30.09 in - Calm Calm - N/A   Clear
1:00 AM 66.2 °F 51.8 °F 60% 30.09 in - Calm Calm - N/A   Clear
2:00 AM 66.2 °F 53.6 °F 64% 30.09 in - Calm Calm - N/A   Clear
3:00 AM 64 °F 55 °F 65% 29.96 in 9 mi Calm Calm - -  
3:00 AM 64.4 °F 55.4 °F 73% 30.06 in - Calm Calm - N/A   Clear
4:00 AM 60.8 °F 50.0 °F 68% 30.06 in - WSW 6.9 mph - N/A   Clear
5:00 AM 50.0 °F 48.2 °F 94% 30.06 in - West 6.9 mph - N/A   Clear
6:00 AM 59.0 °F 55.4 °F 88% 30.06 in - Calm Calm - N/A   Clear
7:00 AM 59.0 °F 50.0 °F 72% 30.09 in 6.2 mi Calm Calm - N/A   Partly Cloudy
8:00 AM 64.4 °F 51.8 °F 64% 30.09 in 6.2 mi Calm Calm - N/A   Partly Cloudy
9:00 AM 70 °F 54 °F 46% 29.99 in 9 mi Calm Calm - -   Scattered Clouds
9:00 AM 69.8 °F 53.6 °F 56% 30.09 in - Calm Calm - N/A   Clear
10:00 AM 77.0 °F 46.4 °F 34% 30.09 in - Calm Calm - N/A   Clear
11:00 AM 82.4 °F 46.4 °F 28% 30.06 in - Calm Calm - N/A   Clear
12:00 PM 87.8 °F 39.2 °F 18% 30.06 in - WSW 4.6 mph - N/A   Clear
1:00 PM 89.6 °F 41.0 °F 18% 30.04 in - SSE 4.6 mph - N/A   Clear
2:00 PM 93.2 °F 46.4 °F 20% 30.01 in - SW 6.9 mph - N/A   Clear
3:00 PM 95 °F 45 °F 10% 29.85 in 9 mi SW 4.5 mph - -   Scattered Clouds
3:00 PM 95.0 °F 44.6 °F 18% 29.98 in - SW 4.6 mph - N/A   Clear
4:00 PM 93.2 °F 44.6 °F 19% 29.98 in - WSW 4.6 mph - N/A   Clear
5:00 PM 93.2 °F 44.6 °F 19% 29.95 in - North 9.2 mph - N/A   Clear
6:00 PM 89.6 °F 44.6 °F 21% 29.95 in - NNW 6.9 mph - N/A   Clear
7:00 PM 86.0 °F 42.8 °F 22% 29.95 in - NW 4.6 mph - N/A   Clear
8:00 PM 84.2 °F 46.4 °F 27% 29.95 in - NW 2.3 mph - N/A   Clear
9:00 PM 80 °F 49 °F 24% 29.84 in 9 mi Calm Calm - -   Scattered Clouds
9:00 PM 78.8 °F 50.0 °F 36% 29.98 in - Calm Calm - N/A   Clear
10:00 PM 75.2 °F 46.4 °F 36% 29.98 in - Calm Calm - N/A   Clear
11:00 PM 75.2 °F 46.4 °F 36% 29.98 in - Calm Calm - N/A   Clear